Humidity-temperature Sensor

Selected Measurement Type: Air Temperature

 
Air Temperature [°C]     6 entries per hour
Showing data from 5/18/2022 (15:00:00 Z) to 5/15/2022 (00:01:00 Z)
Previous Next [ Day | 3-Days | 7-Days ]
First Last
Prev [ Day | 3-Days | 7-Days ] Next
First Last

Start Time:     :
End Time:     :     
Time (in GMT) :00 :50 :40 :30 :20 :10
Previous Next [ Day | 3-Days | 7-Days ]
First Last
Prev [ Day | 3-Days | 7-Days ] Next
First Last


123 => good data
MM => data is determined as missing
-- => data not received/configured
Back to Top Back to Top
5/18/2022 15:00 to 14:10 27.42 27.36 27.29 27.24 27.19 27.25
5/18/2022 14:00 to 13:10 27.34 27.37 27.26 27.36 27.21 27.18
5/18/2022 13:00 to 12:10 27.07 27.04 26.90 26.69 26.54 26.49
5/18/2022 12:00 to 11:10 26.50 26.91 26.94 26.96 27.08 27.13
5/18/2022 11:00 to 10:10 27.05 27.09 27.02 26.98 27.03 27.07
5/18/2022 10:00 to 9:10 26.93 27.11 27.05 27.31 26.91 26.78
5/18/2022 09:00 to 8:10 26.80 26.53 26.65 27.07 26.79 26.79
5/18/2022 08:00 to 7:10 26.76 26.74 26.79 26.95 26.84 26.76
5/18/2022 07:00 to 6:10 26.79 26.81 26.46 26.64 26.67 26.81
5/18/2022 06:00 to 5:10 26.88 27.12 27.23 27.10 27.41 27.13
5/18/2022 05:00 to 4:10 27.07 27.13 27.00 27.09 27.13 27.00
5/18/2022 04:00 to 3:10 27.02 27.03 26.89 26.83 26.80 26.91
5/18/2022 03:00 to 2:10 26.89 26.96 26.89 26.84 27.00 27.01
5/18/2022 02:00 to 1:10 26.95 26.76 26.67 26.59 26.45 26.41
5/18/2022 01:00 to 0:10 26.45 26.57 26.52 26.43 26.45 26.55
5/18/2022 00:00 to 23:10 26.43 26.32 26.55 26.73 26.55 26.58
5/17/2022 23:00 to 22:10 26.80 26.57 26.89 26.85 26.58 26.62
5/17/2022 22:00 to 21:10 26.85 26.60 26.64 26.75 26.67 26.77
5/17/2022 21:00 to 20:10 26.75 26.76 26.80 26.81 26.70 26.71
5/17/2022 20:00 to 19:10 26.80 26.76 27.00 26.89 27.00 27.00
5/17/2022 19:00 to 18:10 26.94 26.92 27.11 26.90 26.82 26.90
5/17/2022 18:00 to 17:10 26.73 26.55 26.49 26.60 26.57 26.61
5/17/2022 17:00 to 16:10 26.32 26.40 26.40 26.08 26.35 26.20
5/17/2022 16:00 to 15:10 26.20 26.25 26.21 26.28 26.30 26.19
5/17/2022 15:00 to 14:10 26.23 26.10 26.14 26.29 26.48 26.76
5/17/2022 14:00 to 13:10 26.64 26.72 26.78 26.81 26.81 26.62
5/17/2022 13:00 to 12:10 26.34 26.37 26.32 26.30 26.37 26.34
5/17/2022 12:00 to 11:10 26.38 26.51 26.33 26.35 26.41 26.25
5/17/2022 11:00 to 10:10 26.30 26.19 26.00 25.85 25.94 25.96
5/17/2022 10:00 to 9:10 25.93 25.97 25.85 25.95 25.70 25.85
5/17/2022 09:00 to 8:10 25.80 25.87 26.02 25.97 25.98 25.97
5/17/2022 08:00 to 7:10 25.98 25.93 25.94 26.13 26.21 26.10
5/17/2022 07:00 to 6:10 26.24 26.35 26.23 26.14 26.06 26.12
5/17/2022 06:00 to 5:10 26.20 26.30 26.35 26.17 26.10 26.26
5/17/2022 05:00 to 4:10 -- -- -- -- -- --
5/17/2022 04:00 to 3:10 25.98 26.05 26.21 26.16 26.10 26.12
5/17/2022 03:00 to 2:10 26.05 26.02 26.04 25.80 25.88 25.87
5/17/2022 02:00 to 1:10 25.79 25.77 25.79 25.72 25.59 25.56
5/17/2022 01:00 to 0:10 25.58 25.49 25.64 25.49 25.50 25.48
5/17/2022 00:00 to 23:10 25.33 25.38 25.29 25.25 24.84 24.89
5/16/2022 23:00 to 22:10 24.48 24.45 24.22 24.04 24.09 24.22
5/16/2022 22:00 to 21:10 24.05 23.94 24.14 24.34 24.18 24.28
5/16/2022 21:00 to 20:10 24.41 24.62 24.62 24.79 24.57 24.35
5/16/2022 20:00 to 19:10 24.36 24.39 24.17 24.40 24.31 24.41
5/16/2022 19:00 to 18:10 24.25 24.29 24.34 24.62 24.50 24.50
5/16/2022 18:00 to 17:10 24.35 24.74 24.74 24.75 24.69 24.95
5/16/2022 17:00 to 16:10 25.23 25.81 27.07 27.25 27.13 27.16
5/16/2022 16:00 to 15:10 27.31 27.41 27.24 27.22 27.30 27.32
5/16/2022 15:00 to 14:10 27.38 27.30 27.25 27.29 27.23 27.24
5/16/2022 14:00 to 13:10 27.29 27.22 27.22 27.37 27.18 27.14
5/16/2022 13:00 to 12:10 27.07 27.09 26.95 26.73 26.62 26.42
5/16/2022 12:00 to 11:10 26.57 26.59 26.80 27.03 27.12 27.03
5/16/2022 11:00 to 10:10 27.01 26.91 26.86 26.94 27.01 26.96
5/16/2022 10:00 to 9:10 26.90 27.01 26.92 27.15 27.12 26.83
5/16/2022 09:00 to 8:10 26.93 27.07 26.83 26.66 26.82 26.82
5/16/2022 08:00 to 7:10 26.89 26.84 26.93 26.82 26.86 26.72
5/16/2022 07:00 to 6:10 26.52 26.61 26.84 26.86 26.80 26.75
5/16/2022 06:00 to 5:10 26.74 26.72 27.12 27.15 27.03 27.05
5/16/2022 05:00 to 4:10 27.01 27.18 27.26 27.20 27.37 27.29
5/16/2022 04:00 to 3:10 27.33 27.26 27.19 27.29 27.21 27.39
5/16/2022 03:00 to 2:10 27.20 27.35 27.20 27.20 27.33 27.25
5/16/2022 02:00 to 1:10 27.24 27.07 27.23 27.05 27.14 27.12
5/16/2022 01:00 to 0:10 27.13 27.07 27.10 27.07 27.05 27.03
5/16/2022 00:00 to 23:10 27.04 27.13 27.06 27.09 27.11 27.00
5/15/2022 23:00 to 22:10 27.29 26.97 26.93 27.12 26.96 26.98
5/15/2022 22:00 to 21:10 26.97 27.03 26.93 27.14 27.08 26.91
5/15/2022 21:00 to 20:10 27.06 27.09 27.03 27.17 27.25 27.04
5/15/2022 20:00 to 19:10 27.10 27.05 26.93 27.11 27.14 27.11
5/15/2022 19:00 to 18:10 26.96 26.68 26.54 26.47 26.42 26.19
5/15/2022 18:00 to 17:10 26.32 26.00 25.98 25.84 25.76 25.84
5/15/2022 17:00 to 16:10 25.65 25.44 25.32 25.57 25.55 25.38
5/15/2022 16:00 to 15:10 25.16 25.22 25.01 24.58 24.13 24.23
5/15/2022 15:00 to 14:10 24.38 25.02 27.13 27.03 27.23 27.18
5/15/2022 14:00 to 13:10 27.12 27.00 27.08 27.05 27.00 27.08
5/15/2022 13:00 to 12:10 26.89 27.10 27.04 27.05 27.14 26.98
5/15/2022 12:00 to 11:10 26.99 26.85 26.90 26.80 26.86 26.75
5/15/2022 11:00 to 10:10 26.64 26.68 26.77 26.45 26.44 26.41
5/15/2022 10:00 to 9:10 26.48 26.34 26.38 26.27 26.42 26.33
5/15/2022 09:00 to 8:10 26.35 26.12 26.02 26.06 26.08 26.07
5/15/2022 08:00 to 7:10 25.97 25.93 26.15 26.17 26.07 26.04
5/15/2022 07:00 to 6:10 25.97 25.87 26.20 25.81 25.80 25.86
5/15/2022 06:00 to 5:10 25.62 25.63 25.62 25.80 25.77 25.86
5/15/2022 05:00 to 4:10 25.62 25.91 25.98 25.87 25.84 25.89
5/15/2022 04:00 to 3:10 25.67 25.60 25.71 25.61 25.93 25.64
5/15/2022 03:00 to 2:10 25.44 25.43 25.07 25.29 25.13 25.28
5/15/2022 02:00 to 1:10 25.34 25.34 25.51 25.30 25.44 25.29
5/15/2022 01:00 to 0:10 25.32 25.32 25.29 25.37 25.25 25.26